This is the latest recevied weather packets stored in our database for station/object DG7YEO-13. If no packets are shown the sender has not sent any weather packets the latest 10 day(s).
| Time | Temp. | Humidity | Pressure | Rain* | Wind** | Luminosity | Snow |
|---|---|---|---|---|---|---|---|
| 1787823125 | 24.44° C | 69% | 1011.5 hPa | 0 mm | - | - | - |
| 1787822225 | 23.89° C | 70% | 1011.5 hPa | 0 mm | - | - | - |
| 1787821325 | 23.89° C | 71% | 1011.6 hPa | 0 mm | - | - | - |
| 1787820425 | 23.33° C | 73% | 1012 hPa | 0 mm | - | - | - |
| 1787819525 | 22.78° C | 74% | 1012.2 hPa | 0 mm | - | - | - |
| 1787818625 | 22.22° C | 76% | 1012.2 hPa | 0 mm | - | - | - |
| 1787817725 | 21.67° C | 78% | 1012.3 hPa | 0 mm | - | - | - |
| 1787816825 | 21.11° C | 79% | 1012.4 hPa | 0 mm | - | - | - |
| 1787815926 | 20.56° C | 81% | 1012.4 hPa | 0 mm | - | - | - |
| 1787815024 | 19.44° C | 83% | 1012.6 hPa | 0 mm | - | - | - |
| 1787814126 | 18.89° C | 85% | 1012.8 hPa | 0 mm | - | - | - |
| 1787813225 | 18.33° C | 88% | 1012.7 hPa | 0 mm | - | - | - |
| 1787812325 | 17.22° C | 91% | 1012.8 hPa | 0 mm | - | - | - |
| 1787811425 | 16.67° C | 93% | 1012.7 hPa | 0 mm | - | - | - |
| 1787810526 | 16.11° C | 94% | 1012.9 hPa | 0 mm | - | - | - |
| 1787809625 | 15.56° C | 94% | 1012.9 hPa | 0 mm | - | - | - |
| 1787808725 | 15.56° C | 94% | 1013.1 hPa | 0 mm | - | - | - |
| 1787807825 | 15.56° C | 94% | 1013.4 hPa | 0 mm | - | - | - |
| 1787806926 | 15.56° C | 93% | 1013.5 hPa | 0 mm | - | - | - |
| 1787806025 | 15.56° C | 93% | 1013.4 hPa | 0 mm | - | - | - |
| 1787805125 | 15.56° C | 93% | 1013.5 hPa | 0 mm | - | - | - |
| 1787804225 | 15.56° C | 92% | 1013.6 hPa | 0 mm | - | - | - |
| 1787803326 | 15.56° C | 92% | 1013.7 hPa | 0 mm | - | - | - |
| 1787802425 | 15.56° C | 92% | 1013.9 hPa | 0 mm | - | - | - |
| 1787801525 | 15.56° C | 92% | 1014.2 hPa | 0 mm | - | - | - |
* Rain latest hour (hover to see other rain measurements)
** Current wind speed in m/s (hover to see current wind gust speed)